WJA2751 TNCA-CYYZ

Flight info

Callsign WJA2751
Flight time N/A
Altitude 34000
Route SCAPA1F SCAPA L455 VACHI DCT FIPEK/N0474F340 Y292 MNDEZ L454 LUCTI/M080F340 L454 JNFOX/M080F350 DCT OKONU/N0465F350 Y484 WEBBB/N0467F360 B24 SIE DCT MXE DCT ELZ DCT WOZEE LINNG3
Aircraft B738/M-VGDW/C

Departure

Time 2026-04-28 22:15
Airport Queen Beatrix International Airport (TNCA)

Arrival

Time N/A
Airport Toronto Pearson International Airport (CYYZ)
Time Latitude Longitude Altitude Speed Heading
2026-04-28 22:04 12.50330 -70.01018 73 ft 0 kts 22°
2026-04-28 22:07 12.50329 -70.01019 73 ft 0 kts 22°
2026-04-28 22:07 12.50326 -70.01020 73 ft 1 kts 22°
2026-04-28 22:08 12.50313 -70.01025 72 ft 0 kts 21°
2026-04-28 22:08 12.50302 -70.01029 72 ft 2 kts 12°
2026-04-28 22:08 12.50287 -70.01029 71 ft 2 kts 352°
2026-04-28 22:08 12.50273 -70.01025 70 ft 2 kts 335°
2026-04-28 22:09 12.50260 -70.01017 70 ft 2 kts 317°
2026-04-28 22:09 12.50250 -70.01006 71 ft 2 kts 300°
2026-04-28 22:09 12.50245 -70.00995 71 ft 0 kts 287°
2026-04-28 22:09 12.50244 -70.00989 71 ft 0 kts 285°
2026-04-28 22:11 12.50248 -70.01007 70 ft 4 kts 280°
2026-04-28 22:11 12.50256 -70.01054 69 ft 10 kts 277°
2026-04-28 22:11 12.50234 -70.01136 65 ft 17 kts 259°
2026-04-28 22:12 12.50261 -70.01285 60 ft 24 kts 283°
2026-04-28 22:12 12.50309 -70.01483 52 ft 32 kts 284°
2026-04-28 22:12 12.50367 -70.01724 42 ft 36 kts 284°
2026-04-28 22:12 12.50428 -70.01977 35 ft 36 kts 284°
2026-04-28 22:13 12.50487 -70.02228 30 ft 36 kts 283°
2026-04-28 22:13 12.50539 -70.02453 27 ft 23 kts 283°
2026-04-28 22:13 12.50576 -70.02612 26 ft 22 kts 281°
2026-04-28 22:13 12.50516 -70.02741 24 ft 20 kts 212°
2026-04-28 22:14 12.50423 -70.02708 23 ft 15 kts 106°
2026-04-28 22:14 12.50369 -70.02492 25 ft 62 kts 101°
2026-04-28 22:14 12.50214 -70.01825 35 ft 127 kts 103°
2026-04-28 22:14 12.49955 -70.00771 154 ft 170 kts 106°
2026-04-28 22:15 12.49569 -69.99572 712 ft 185 kts 105°
2026-04-28 22:15 12.49151 -69.98327 1516 ft 188 kts 100°
2026-04-28 22:15 12.48974 -69.97015 2147 ft 191 kts 94°
2026-04-28 22:15 12.48765 -69.95589 2496 ft 214 kts 99°
2026-04-28 22:16 12.48508 -69.94098 3208 ft 216 kts 90°
2026-04-28 22:16 12.48892 -69.92609 3867 ft 228 kts 61°
2026-04-28 22:16 12.50055 -69.91415 4465 ft 247 kts 37°
2026-04-28 22:16 12.51702 -69.90669 4950 ft 270 kts 21°
2026-04-28 22:17 12.53552 -69.90194 5674 ft 277 kts 18°
2026-04-28 22:17 12.55435 -69.89761 6415 ft 281 kts 17°
2026-04-28 22:17 12.57375 -69.89303 7168 ft 284 kts 18°
2026-04-28 22:17 12.59305 -69.88826 7817 ft 290 kts 18°
2026-04-28 22:18 12.61274 -69.88329 8569 ft 292 kts 18°
2026-04-28 22:18 12.63247 -69.87828 9244 ft 296 kts 17°
2026-04-28 22:18 12.65289 -69.87312 9947 ft 300 kts 17°
2026-04-28 22:18 12.67353 -69.86789 10402 ft 312 kts 17°
2026-04-28 22:19 12.69515 -69.86239 10777 ft 327 kts 16°
2026-04-28 22:19 12.71773 -69.85665 11103 ft 342 kts 16°
2026-04-28 22:19 12.74174 -69.85057 11403 ft 358 kts 16°
2026-04-28 22:19 12.76642 -69.84433 11669 ft 373 kts 15°
2026-04-28 22:20 12.79214 -69.83782 11901 ft 388 kts 15°
2026-04-28 22:20 12.81920 -69.83099 12099 ft 404 kts 15°
2026-04-28 22:20 12.84709 -69.82397 12275 ft 418 kts 15°
2026-04-28 22:20 12.87563 -69.81679 12789 ft 422 kts 15°
2026-04-28 22:21 12.90458 -69.80952 13307 ft 426 kts 15°
2026-04-28 22:21 12.93353 -69.80222 13796 ft 430 kts 15°
2026-04-28 22:21 12.96242 -69.79293 14316 ft 432 kts 23°
2026-04-28 22:21 12.98916 -69.77859 14765 ft 435 kts 33°
2026-04-28 22:22 13.01402 -69.76076 15250 ft 438 kts 38°
2026-04-28 22:22 13.03801 -69.74153 15713 ft 441 kts 40°
2026-04-28 22:22 13.06231 -69.72131 16148 ft 445 kts 40°
2026-04-28 22:22 13.08639 -69.70125 16608 ft 448 kts 40°
2026-04-28 22:23 13.11107 -69.68091 17016 ft 453 kts 39°
2026-04-28 22:23 13.13579 -69.66084 17414 ft 457 kts 39°
2026-04-28 22:23 13.16086 -69.64072 17873 ft 459 kts 38°
2026-04-28 22:23 13.18628 -69.62052 18262 ft 463 kts 38°
2026-04-28 22:24 13.21193 -69.60024 18703 ft 466 kts 38°
2026-04-28 22:24 13.23810 -69.57961 19095 ft 470 kts 38°
2026-04-28 22:24 13.26424 -69.55901 19527 ft 472 kts 38°
2026-04-28 22:24 13.29043 -69.53838 19919 ft 476 kts 38°
2026-04-28 22:25 13.31667 -69.51770 20284 ft 480 kts 38°
2026-04-28 22:25 13.34336 -69.49665 20692 ft 483 kts 37°
2026-04-28 22:25 13.37022 -69.47546 21096 ft 485 kts 37°
2026-04-28 22:25 13.39732 -69.45406 21466 ft 489 kts 37°
2026-04-28 22:26 13.42415 -69.43285 21809 ft 493 kts 37°
2026-04-28 22:26 13.45132 -69.41135 22251 ft 494 kts 37°
2026-04-28 22:26 13.47882 -69.38959 22590 ft 498 kts 37°
2026-04-28 22:26 13.50658 -69.36761 22951 ft 501 kts 37°
2026-04-28 22:27 13.53419 -69.34574 23320 ft 503 kts 38°
2026-04-28 22:27 13.56222 -69.32355 23667 ft 506 kts 37°
2026-04-28 22:27 13.59036 -69.30125 24011 ft 509 kts 38°
2026-04-28 22:27 13.61817 -69.27921 24499 ft 508 kts 37°